Theta_e
325 323 320 317 315 315 315 314 313 312 313 313 313 314 316 317 317 317 317 317 318 319 319 319 319 319 317
319 319 319 316 314 314 313 311 309 307 309 310 311 313 315 316 316 316 316 317 317 316 316 316 318 318 315
313 313 314 314 314 311 308 307 304 304 305 307 308 311 312 314 315 315 315 315 314 312 312 314 317 317 316
309 308 306 306 307 305 304 304 304 304 305 305 305 307 307 310 311 313 313 313 311 311 311 312 314 315 315
306 304 305 306 305 304 303 303 304 304 304 304 304 305 305 307 309 309 309 310 311 312 312 311 312 312 315
304 304 305 305 303 302 302 303 304 303 303 303 304 304 306 308 308 309 309 310 311 311 311 311 312 314 316
304 304 304 304 302 301 302 304 304 303 302 303 304 305 307 308 309 309 309 310 310 311 312 313 314 316 317
304 304 303 301 301 301 303 304 303 303 303 304 305 306 308 308 309 310 309 308 309 309 312 312 313 318 320
304 303 301 301 300 302 303 303 303 303 304 304 305 307 308 309 311 311 311 311 311 311 312 313 312 316 319
303 302 300 300 301 302 302 303 303 304 305 305 306 306 308 310 311 311 312 310 311 311 311 310 311 316 318
301 299 299 300 301 302 303 303 303 305 305 305 306 306 307 309 310 311 311 310 309 310 309 309 309 310 313
299 298 299 300 301 302 302 303 304 305 305 306 306 306 306 308 310 311 312 312 310 309 309 308 308 308 309
297 297 298 299 300 301 302 303 304 305 305 305 305 305 306 307 309 311 312 310 310 308 308 309 308 308 307
297 296 297 298 299 301 302 302 303 304 304 305 304 305 306 308 309 311 311 310 310 309 304 308 303 305 306
296 297 297 298 298 299 300 301 302 303 304 304 304 305 306 308 309 310 311 309 306 309 307 305 303 300 302
297 297 297 296 296 298 300 300 301 302 303 304 304 305 306 308 310 311 312 310 308 305 307 306 305 307 300
Wind_Speed
9 8 7 6 6 7 7 9 10 11 11 11 11 11 11 12 12 12 12 12 12 12 12 12 9 7 8
5 9 8 6 6 7 8 10 10 10 11 11 11 12 12 13 13 13 12 12 12 12 11 12 11 8 7
5 4 6 7 8 7 7 10 7 5 6 7 9 11 12 12 13 13 13 13 13 11 12 12 9 4 5
4 4 4 4 4 4 4 5 4 5 5 5 6 9 10 11 11 12 12 11 9 6 5 7 4 5 4
4 3 2 2 2 3 4 4 4 3 4 4 3 4 5 7 5 6 7 5 8 6 6 6 6 6 4
4 3 3 2 2 2 3 3 3 3 4 3 3 5 5 4 6 5 4 7 8 8 7 8 8 7 5
5 3 3 3 2 2 2 2 3 3 3 3 4 4 5 5 5 6 6 7 7 8 7 7 8 8 7
5 4 3 3 3 2 2 2 3 2 3 3 4 5 5 5 5 5 5 4 5 7 8 8 8 7 5
6 5 4 3 3 2 2 2 3 2 3 4 3 4 5 6 8 5 4 4 6 5 7 8 6 7 6
6 4 4 3 2 2 2 1 3 3 3 4 4 5 6 5 5 5 5 5 6 7 7 6 6 8 10
7 4 4 4 2 2 1 1 2 3 4 3 4 5 7 5 5 5 4 4 5 5 5 5 7 6 8
6 5 3 2 2 1 1 1 2 3 4 4 3 5 5 5 5 6 5 4 3 4 3 5 6 6 7
4 3 2 2 1 1 0 1 3 3 4 4 3 5 5 4 5 5 5 4 4 6 1 1 4 8 11
3 2 2 2 1 1 1 1 2 3 3 3 4 5 6 5 5 6 5 3 2 6 3 1 3 4 6
5 5 3 3 2 1 1 0 1 2 3 3 4 4 5 4 4 5 5 5 3 2 7 3 2 3 2
6 3 4 3 3 2 1 1 1 2 3 3 4 5 5 4 4 4 4 3 1 3 2 6 4 3 3
Wind_Direction
119 119 121 112 86 72 57 44 33 23 15 7 5 355 352 349 346 343 342 337 331 329 321 319 305 310 289
109 115 110 99 93 75 58 43 34 21 11 10 8 357 358 356 352 348 343 341 338 334 324 310 304 298 287
119 110 91 82 73 62 46 40 27 13 6 7 2 3 1 356 354 348 344 339 338 329 319 319 310 292 293
134 115 100 81 72 66 49 38 24 13 5 9 359 3 357 355 345 341 340 336 330 320 307 301 287 279 273
143 134 108 97 90 65 59 40 25 18 6 5 355 354 346 337 337 337 334 338 332 322 315 303 293 282 273
147 143 135 126 105 90 69 53 34 21 11 2 355 343 333 335 334 343 336 332 338 334 321 306 296 283 272
154 139 134 124 111 103 81 57 51 31 17 349 354 336 331 333 341 340 340 340 341 341 336 322 314 296 279
150 147 134 127 122 102 89 61 54 36 7 2 354 337 337 338 340 338 330 330 357 346 336 348 329 330 301
145 136 135 144 126 115 97 56 46 35 8 2 343 336 348 335 342 338 324 358 11 356 357 357 348 344 354
142 135 134 130 119 117 111 54 55 24 15 9 352 348 337 344 347 349 354 12 17 14 5 1 3 15 4
129 123 122 124 124 121 104 86 46 24 18 15 3 340 338 343 3 351 5 20 16 7 7 11 18 18 10
119 114 104 114 119 114 133 101 54 32 19 24 3 342 339 343 10 7 9 8 7 346 27 42 34 32 28
138 134 140 167 168 145 193 72 53 33 22 16 5 335 348 342 10 1 6 4 15 353 320 107 53 45 39
136 140 136 148 155 158 191 130 63 35 24 22 358 338 350 334 23 22 22 17 8 19 344 20 41 16 26
137 121 101 94 86 156 203 143 83 43 9 21 359 337 345 329 18 14 11 39 1 357 22 20 94 62 344
156 144 149 150 153 192 171 131 69 50 11 2 360 344 347 331 9 23 22 44 34 37 350 41 46 82 91